Prairie Du Chien, WI

9:06 PM CDT on August 16, 2017 (GMT -0500)
Prairie Du Chien Municipal

Weather History for KPDC - May, 2013

Change the Weather History Date:

Saturday, May 11, 2013

  Actual Average Record
Temperature  
Mean Temperature 48 °F -  
Max Temperature 54 °F 73 °F 88 °F (2011)
Min Temperature 41 °F 48 °F 32 °F (1990)
Degree Days  
Heating Degree Days 18    
Moisture  
Dew Point 32 °F    
Average Humidity 53    
Maximum Humidity 92    
Minimum Humidity 24    
Precipitation  
Precipitation 0.00 in - - ()
Sea Level Pressure  
Sea Level Pressure 29.99 in    
Wind  
Wind Speed 10 mph (WNW)    
Max Wind Speed 28 mph    
Max Gust Speed 39 mph    
Visibility 9 miles    
Events      
Averages and records for this station are not official NWS values.
T = Trace of Precipitation, MM = Missing Value Source: NWS Daily Summary

Daily Weather History Graph

Daily Weather History Graph

Search for Another Location

Airport or City:

Trip Planner

Search our weather history database for the weather conditions in past years. The results will help you decide how hot, cold, wet, or windy it might be!

Date:

Astronomy

May. 11, 2013 Rise Set
Actual Time 5:45 AM CDT 8:17 PM CDT
Civil Twilight 5:13 AM CDT 8:49 PM CDT
Nautical Twilight 4:32 AM CDT 9:29 PM CDT
Astronomical Twilight 3:47 AM CDT 10:15 PM CDT
Moon 6:52 AM CDT (5/11) 9:58 PM CDT (5/11)
Length of Visible Light 15h 36m
Length of Day
14h 31m
Waxing Crescent, 3% of the Moon is Illuminated
May 11
Waxing Crescent
May 17
First Quarter
May 24
Full
May 31
Last Quarter
Jun 8
New

Hourly Weather History & Observations

Time (CDT) Temp. Windchill Dew Point Humidity Pressure Visibility Wind Dir Wind Speed Gust Speed Precip Events Conditions
12:15 AM 47.1 °F - 44.6 °F 91% 29.95 in 10.0 mi Calm Calm - N/A   Clear
12:35 AM 49.5 °F - 45.5 °F 86% 29.94 in 10.0 mi Calm Calm - N/A   Clear
12:55 AM 46.8 °F - 44.1 °F 90% 29.94 in 10.0 mi Calm Calm - N/A   Clear
1:15 AM 46.8 °F - 44.4 °F 92% 29.93 in 10.0 mi Calm Calm - N/A   Clear
1:35 AM 48.2 °F - 45.1 °F 89% 29.92 in 10.0 mi Calm Calm - N/A   Clear
1:55 AM 49.8 °F - 46.6 °F 89% 29.92 in 10.0 mi Calm Calm - N/A   Clear
2:15 AM 51.3 °F - 47.7 °F 87% 29.92 in 10.0 mi SSW 3.5 mph - N/A   Clear
2:35 AM 51.3 °F - 47.7 °F 87% 29.90 in 10.0 mi SSW 4.6 mph - N/A   Clear
2:55 AM 51.8 °F - 48.0 °F 87% 29.90 in 10.0 mi SSW 4.6 mph - N/A   Scattered Clouds
3:15 AM 51.8 °F - 48.0 °F 87% 29.89 in 10.0 mi Calm Calm - N/A   Mostly Cloudy
3:35 AM 52.2 °F - 48.2 °F 86% 29.89 in 10.0 mi Calm Calm - N/A   Mostly Cloudy
3:55 AM 52.2 °F - 48.2 °F 86% 29.88 in 10.0 mi South 3.5 mph - N/A   Overcast
4:15 AM 52.2 °F - 48.2 °F 86% 29.87 in 10.0 mi Calm Calm - N/A   Overcast
4:35 AM 52.0 °F - 48.4 °F 88% 29.86 in 10.0 mi Calm Calm - N/A   Overcast
4:55 AM 51.8 °F - 48.7 °F 89% 29.85 in 10.0 mi SSW 6.9 mph - N/A   Overcast
5:15 AM 52.5 °F - 48.4 °F 86% 29.85 in 10.0 mi WSW 6.9 mph - N/A   Overcast
5:35 AM 53.1 °F - 45.3 °F 75% 29.85 in 10.0 mi West 12.7 mph - N/A   Scattered Clouds
5:55 AM 52.0 °F - 43.7 °F 73% 29.86 in 10.0 mi West 18.4 mph 25.3 mph N/A   Clear
6:15 AM 51.1 °F - 42.3 °F 72% 29.86 in 10.0 mi WNW 15.0 mph 20.7 mph N/A   Clear
6:35 AM 50.4 °F - 41.7 °F 72% 29.88 in 10.0 mi WNW 18.4 mph 24.2 mph N/A   Clear
6:55 AM 50.2 °F - 41.7 °F 73% 29.89 in 10.0 mi WNW 15.0 mph 21.9 mph N/A   Clear
7:15 AM 50.5 °F - 41.4 °F 71% 29.90 in 10.0 mi WNW 15.0 mph 24.2 mph N/A   Scattered Clouds
7:35 AM 50.5 °F - 41.5 °F 71% 29.91 in 10.0 mi WNW 19.6 mph 24.2 mph N/A   Mostly Cloudy
7:55 AM 50.0 °F - 39.2 °F 66% 29.92 in 10.0 mi WNW 25.3 mph 33.4 mph N/A   Mostly Cloudy
8:15 AM 49.5 °F - 35.8 °F 59% 29.93 in 10.0 mi NW 17.3 mph 32.2 mph N/A   Scattered Clouds
8:35 AM 49.8 °F - 32.7 °F 52% 29.95 in 10.0 mi WNW 18.4 mph 29.9 mph N/A   Clear
8:55 AM 50.2 °F - 31.3 °F 48% 29.95 in 10.0 mi NW 19.6 mph 29.9 mph N/A   Clear
9:15 AM 50.0 °F - 28.4 °F 43% 29.96 in 10.0 mi WNW 20.7 mph 33.4 mph N/A   Clear
9:35 AM 50.9 °F - 27.3 °F 40% 29.97 in 10.0 mi WNW 19.6 mph 26.5 mph N/A   Clear
9:55 AM 50.9 °F - 27.3 °F 40% 29.97 in 10.0 mi NW 21.9 mph 28.8 mph N/A   Clear
10:15 AM 51.1 °F - 28.9 °F 43% 29.97 in 10.0 mi WNW 17.3 mph 31.1 mph N/A   Clear
10:35 AM 51.1 °F - 26.8 °F 39% 29.99 in 10.0 mi NW 16.1 mph 28.8 mph N/A   Clear
10:55 AM 51.3 °F - 26.6 °F 38% 29.99 in 7.0 mi WNW 19.6 mph 33.4 mph N/A   Clear
11:15 AM 52.2 °F - 25.9 °F 36% 29.99 in 5.0 mi NW 23.0 mph 33.4 mph N/A   Haze
11:35 AM 52.7 °F - 27.1 °F 37% 30.00 in 7.0 mi WNW 25.3 mph 33.4 mph N/A   Clear
11:55 AM 53.2 °F - 27.9 °F 38% 30.01 in 10.0 mi WNW 21.9 mph 29.9 mph N/A   Clear
12:15 PM 51.8 °F - 27.7 °F 39% 30.01 in 5.0 mi NW 20.7 mph 34.5 mph N/A   Haze
12:35 PM 52.2 °F - 27.1 °F 38% 30.01 in 5.0 mi NW 18.4 mph 31.1 mph N/A   Haze
12:55 PM 52.5 °F - 27.0 °F 37% 30.01 in 4.0 mi NW 17.3 mph 38.0 mph N/A   Haze
1:15 PM 52.5 °F - 26.8 °F 37% 30.02 in 10.0 mi NW 20.7 mph 31.1 mph N/A   Scattered Clouds
1:35 PM 51.8 °F - 27.0 °F 38% 30.02 in 10.0 mi NW 19.6 mph 31.1 mph N/A   Scattered Clouds
1:55 PM 51.1 °F - 27.9 °F 41% 30.03 in 10.0 mi NNW 19.6 mph 33.4 mph N/A   Mostly Cloudy
2:15 PM 52.0 °F - 23.5 °F 33% 30.03 in 10.0 mi NW 24.2 mph 35.7 mph N/A   Scattered Clouds
2:35 PM 54.0 °F - 24.3 °F 32% 30.03 in 7.0 mi NW 20.7 mph 33.4 mph N/A   Mostly Cloudy
2:55 PM 53.2 °F - 23.5 °F 32% 30.03 in 7.0 mi NW 21.9 mph 28.8 mph N/A   Scattered Clouds
3:15 PM 50.4 °F - 29.7 °F 45% 30.06 in 1.8 mi NNW 27.6 mph 39.1 mph N/A   Haze
3:35 PM 49.3 °F - 23.4 °F 36% 30.06 in 10.0 mi WNW 23.0 mph 36.8 mph N/A   Mostly Cloudy
3:55 PM 50.4 °F - 28.8 °F 43% 30.05 in 10.0 mi West 20.7 mph 26.5 mph N/A   Mostly Cloudy
4:15 PM 52.2 °F - 24.8 °F 35% 30.04 in 10.0 mi WNW 20.7 mph 35.7 mph N/A   Scattered Clouds
4:35 PM 51.4 °F - 26.6 °F 38% 30.04 in 10.0 mi NW 15.0 mph 26.5 mph N/A   Mostly Cloudy
4:55 PM 52.9 °F - 19.2 °F 27% 30.04 in 10.0 mi NW 20.7 mph 32.2 mph N/A   Scattered Clouds
5:15 PM 52.5 °F - 19.0 °F 27% 30.04 in 7.0 mi NW 23.0 mph 36.8 mph N/A   Scattered Clouds
5:35 PM 53.8 °F - 20.1 °F 27% 30.04 in 10.0 mi NW 18.4 mph 26.5 mph N/A   Mostly Cloudy
5:55 PM 52.3 °F - 18.5 °F 26% 30.05 in 10.0 mi NW 13.8 mph 27.6 mph N/A   Mostly Cloudy
6:15 PM 52.7 °F - 16.5 °F 24% 30.05 in 10.0 mi NW 17.3 mph 31.1 mph N/A   Clear
6:35 PM 52.3 °F - 18.0 °F 26% 30.05 in 10.0 mi NW 21.9 mph 29.9 mph N/A   Scattered Clouds
6:55 PM 51.3 °F - 18.9 °F 28% 30.05 in 10.0 mi NW 20.7 mph 27.6 mph N/A   Scattered Clouds
7:15 PM 51.1 °F - 18.7 °F 28% 30.06 in 10.0 mi NW 19.6 mph 28.8 mph N/A   Scattered Clouds
7:35 PM 50.4 °F - 19.8 °F 30% 30.06 in 10.0 mi WNW 16.1 mph 26.5 mph N/A   Scattered Clouds
7:55 PM 49.5 °F - 19.2 °F 30% 30.07 in 10.0 mi NW 18.4 mph 29.9 mph N/A   Scattered Clouds
8:15 PM 48.6 °F - 21.0 °F 34% 30.08 in 10.0 mi NNW 16.1 mph 27.6 mph N/A   Clear
8:35 PM 48.0 °F - 20.7 °F 34% 30.09 in 10.0 mi NW 17.3 mph 24.2 mph N/A   Clear
9:15 PM 46.8 °F - 21.9 °F 37% 30.10 in 10.0 mi NW 9.2 mph - N/A   Clear
9:35 PM 46.0 °F 41.9 °F 23.0 °F 40% 30.11 in 10.0 mi WNW 8.1 mph - N/A   Clear
9:55 PM 45.0 °F 41.8 °F 24.1 °F 44% 30.11 in 10.0 mi WNW 5.8 mph - N/A   Clear
10:15 PM 44.8 °F 41.6 °F 24.3 °F 45% 30.12 in 10.0 mi NW 5.8 mph - N/A   Clear
10:35 PM 44.1 °F 40.1 °F 25.0 °F 47% 30.12 in 10.0 mi WNW 6.9 mph - N/A   Clear
10:55 PM 43.9 °F 39.9 °F 25.9 °F 49% 30.12 in 10.0 mi West 6.9 mph - N/A   Clear
11:15 PM 43.2 °F 39.7 °F 26.2 °F 51% 30.12 in 10.0 mi WNW 5.8 mph - N/A   Clear
11:35 PM 41.5 °F 38.6 °F 26.6 °F 55% 30.12 in 10.0 mi WNW 4.6 mph - N/A   Clear
11:55 PM 42.8 °F 38.0 °F 25.9 °F 51% 30.12 in 10.0 mi WNW 8.1 mph - N/A   Clear